Hourly Weather Almargen

Today, 26 February, Friday

Time Temperature Precipitation Wind Pressure Humidity
00:00 +8°C° 0 mm 3 mps 712 mmHg 86%
01:00 +8°C° 0 mm 2 mps 712 mmHg 85%
02:00 +8°C° 0 mm 2 mps 712 mmHg 84%
03:00 +9°C° 0 mm 1 mps 711 mmHg 83%
04:00 +9°C° 0 mm 1 mps 711 mmHg 84%
05:00 +8°C° 0 mm 1 mps 711 mmHg 84%
06:00 +8°C° 0 mm 1 mps 711 mmHg 85%
07:00 +9°C° 0 mm 1 mps 712 mmHg 81%
08:00 +9°C° 0 mm 2 mps 712 mmHg 78%
09:00 +12°C° 0 mm 2 mps 713 mmHg 74%
10:00 +12°C° 0 mm 3 mps 713 mmHg 69%
11:00 +13°C° 0 mm 4 mps 713 mmHg 64%
12:00 +14°C° 0 mm 5 mps 713 mmHg 59%
13:00 +14°C° 0 mm 5 mps 713 mmHg 58%
14:00 +14°C° 0 mm 4 mps 712 mmHg 57%
15:00 +14°C° 0 mm 4 mps 712 mmHg 56%
16:00 +13°C° 0 mm 3 mps 712 mmHg 62%
17:00 +12°C° 0 mm 3 mps 711 mmHg 67%
18:00 +10°C° 0 mm 2 mps 711 mmHg 72%
19:00 +10°C° 0 mm 2 mps 711 mmHg 74%
20:00 +9°C° 0 mm 2 mps 711 mmHg 77%
21:00 +8°C° 0 mm 2 mps 712 mmHg 79%
22:00 +8°C° 0 mm 2 mps 712 mmHg 80%
23:00 +9°C° 0 mm 1 mps 712 mmHg 82%

Tomorrow, 27 February, Saturday

Time Temperature Precipitation Wind Pressure Humidity
00:00 +8°C° 0 mm 1 mps 712 mmHg 83%
01:00 +8°C° 0 mm 1 mps 712 mmHg 83%
02:00 +8°C° 0 mm 1 mps 711 mmHg 83%
03:00 +8°C° 0 mm 1 mps 711 mmHg 83%
04:00 +8°C° 0 mm 1 mps 711 mmHg 81%
05:00 +8°C° 0 mm 1 mps 711 mmHg 80%
06:00 +8°C° 0 mm 1 mps 711 mmHg 78%
07:00 +9°C° 0 mm 1 mps 711 mmHg 75%
08:00 +10°C° 0 mm 1 mps 712 mmHg 71%
09:00 +10°C° 0 mm 2 mps 712 mmHg 68%
10:00 +13°C° 0 mm 2 mps 712 mmHg 64%
11:00 +14°C° 0 mm 2 mps 712 mmHg 60%
12:00 +14°C° 0 mm 3 mps 712 mmHg 56%
13:00 +15°C° 0 mm 2 mps 711 mmHg 56%
14:00 +15°C° 0 mm 2 mps 711 mmHg 56%
15:00 +16°C° 0 mm 2 mps 711 mmHg 56%
16:00 +14°C° 0 mm 2 mps 710 mmHg 63%
17:00 +13°C° 0 mm 2 mps 709 mmHg 70%
18:00 +10°C° 0 mm 2 mps 709 mmHg 77%
19:00 +9°C° 0 mm 2 mps 709 mmHg 80%
20:00 +8°C° 0 mm 2 mps 709 mmHg 84%
21:00 +7°C° 0 mm 2 mps 709 mmHg 87%
22:00 +7°C° 0 mm 2 mps 709 mmHg 87%
23:00 +7°C° 0 mm 2 mps 709 mmHg 88%

Day after tomorrow, 28 February, Sunday

Time Temperature Precipitation Wind Pressure Humidity
00:00 +6°C° 0 mm 2 mps 709 mmHg 88%
01:00 +6°C° 0 mm 2 mps 708 mmHg 89%
02:00 +6°C° 0 mm 2 mps 708 mmHg 90%
03:00 +6°C° 0 mm 2 mps 708 mmHg 91%
04:00 +6°C° 0 mm 2 mps 708 mmHg 91%
05:00 +6°C° 0 mm 2 mps 708 mmHg 91%
06:00 +6°C° 0 mm 2 mps 708 mmHg 90%
07:00 +7°C° 0 mm 2 mps 708 mmHg 85%
08:00 +8°C° 0 mm 2 mps 709 mmHg 79%
09:00 +10°C° 0 mm 2 mps 709 mmHg 74%
10:00 +11°C° 0 mm 3 mps 709 mmHg 68%
11:00 +13°C° 0 mm 3 mps 709 mmHg 62%
12:00 +14°C° 0 mm 4 mps 709 mmHg 56%
13:00 +14°C° 0 mm 4 mps 708 mmHg 55%
14:00 +15°C° 0 mm 4 mps 708 mmHg 54%
15:00 +15°C° 0 mm 4 mps 707 mmHg 53%
16:00 +14°C° 0 mm 3 mps 707 mmHg 58%
17:00 +12°C° 0 mm 3 mps 707 mmHg 63%
18:00 +12°C° 0 mm 2 mps 707 mmHg 68%
19:00 +10°C° 0 mm 2 mps 707 mmHg 70%
20:00 +9°C° 0 mm 2 mps 707 mmHg 71%
21:00 +9°C° 0 mm 2 mps 707 mmHg 73%
22:00 +8°C° 0.1 mm 2 mps 707 mmHg 76%
23:00 +8°C° 0.1 mm 2 mps 707 mmHg 80%

1 March, Monday

Time Temperature Precipitation Wind Pressure Humidity
00:00 +8°C° 0.1 mm 2 mps 707 mmHg 83%
01:00 +9°C° 0 mm 1 mps 707 mmHg 84%
02:00 +9°C° 0 mm 1 mps 707 mmHg 85%
03:00 +9°C° 0 mm 1 mps 706 mmHg 85%
04:00 +8°C° 0 mm 1 mps 706 mmHg 86%
05:00 +8°C° 0 mm 1 mps 706 mmHg 87%
06:00 +8°C° 0 mm 1 mps 706 mmHg 87%
07:00 +9°C° 0 mm 1 mps 706 mmHg 82%
08:00 +10°C° 0 mm 2 mps 707 mmHg 77%
09:00 +12°C° 0 mm 2 mps 707 mmHg 71%
10:00 +13°C° 0 mm 2 mps 708 mmHg 66%
11:00 +13°C° 0 mm 3 mps 708 mmHg 61%
12:00 +16°C° 0 mm 3 mps 708 mmHg 55%
13:00 +16°C° 0.1 mm 3 mps 708 mmHg 53%
14:00 +17°C° 0.1 mm 3 mps 708 mmHg 51%
15:00 +17°C° 0.1 mm 2 mps 707 mmHg 49%
16:00 +16°C° 0.1 mm 2 mps 707 mmHg 57%
17:00 +14°C° 0.1 mm 1 mps 707 mmHg 64%
18:00 +12°C° 0.1 mm 1 mps 707 mmHg 72%
19:00 +11°C° 0 mm 1 mps 708 mmHg 74%
20:00 +11°C° 0 mm 1 mps 708 mmHg 77%
21:00 +10°C° 0 mm 1 mps 709 mmHg 80%
22:00 +9°C° 0 mm 1 mps 709 mmHg 80%
23:00 +9°C° 0 mm 1 mps 709 mmHg 80%

2 March, Tuesday

Time Temperature Precipitation Wind Pressure Humidity
00:00 +9°C° 0 mm 1 mps 709 mmHg 80%
01:00 +8°C° 0 mm 0 mps 709 mmHg 80%
02:00 +8°C° 0 mm 0 mps 709 mmHg 80%
03:00 +7°C° 0 mm 0 mps 709 mmHg 80%
04:00 +7°C° 0 mm 0 mps 710 mmHg 81%
05:00 +7°C° 0 mm 0 mps 710 mmHg 82%
06:00 +8°C° 0 mm 1 mps 710 mmHg 82%
07:00 +9°C° 0 mm 1 mps 711 mmHg 78%
08:00 +11°C° 0 mm 1 mps 711 mmHg 74%
09:00 +12°C° 0 mm 0 mps 712 mmHg 69%
10:00 +14°C° 0 mm 1 mps 712 mmHg 66%
11:00 +15°C° 0 mm 1 mps 713 mmHg 62%
12:00 +16°C° 0 mm 1 mps 713 mmHg 59%
13:00 +18°C° 0.6 mm 1 mps 713 mmHg 59%
14:00 +18°C° 0.6 mm 1 mps 712 mmHg 60%
15:00 +18°C° 0.6 mm 1 mps 712 mmHg 60%
16:00 +16°C° 0.5 mm 1 mps 712 mmHg 66%
17:00 +14°C° 0.5 mm 1 mps 712 mmHg 72%
18:00 +13°C° 0.5 mm 1 mps 712 mmHg 78%
19:00 +12°C° 0 mm 1 mps 712 mmHg 81%
20:00 +11°C° 0 mm 1 mps 713 mmHg 84%
21:00 +10°C° 0 mm 1 mps 713 mmHg 87%
22:00 +10°C° 0 mm 1 mps 713 mmHg 87%
23:00 +9°C° 0 mm 1 mps 713 mmHg 87%

3 March, Wednesday

Time Temperature Precipitation Wind Pressure Humidity
00:00 +9°C° 0 mm 1 mps 713 mmHg 87%
01:00 +9°C° 0 mm 1 mps 713 mmHg 86%
02:00 +8°C° 0 mm 1 mps 713 mmHg 86%
03:00 +8°C° 0 mm 1 mps 713 mmHg 86%
04:00 +8°C° 0 mm 1 mps 713 mmHg 86%
05:00 +8°C° 0 mm 1 mps 713 mmHg 86%
06:00 +8°C° 0 mm 1 mps 713 mmHg 86%
07:00 +9°C° 0 mm 1 mps 713 mmHg 84%
08:00 +10°C° 0 mm 2 mps 714 mmHg 81%
09:00 +12°C° 0 mm 2 mps 714 mmHg 78%
10:00 +13°C° 0 mm 2 mps 714 mmHg 73%
11:00 +13°C° 0 mm 3 mps 714 mmHg 67%
12:00 +14°C° 0 mm 3 mps 714 mmHg 62%
13:00 +14°C° 0 mm 3 mps 714 mmHg 61%
14:00 +15°C° 0 mm 4 mps 714 mmHg 59%
15:00 +15°C° 0 mm 4 mps 713 mmHg 58%
16:00 +13°C° 0 mm 4 mps 713 mmHg 63%
17:00 +12°C° 0 mm 3 mps 712 mmHg 69%
18:00 +11°C° 0 mm 3 mps 712 mmHg 75%
19:00 +10°C° 0 mm 3 mps 712 mmHg 79%
20:00 +9°C° 0 mm 3 mps 712 mmHg 83%
21:00 +9°C° 0 mm 3 mps 713 mmHg 88%
22:00 +8°C° 0 mm 4 mps 713 mmHg 88%
23:00 +8°C° 0 mm 4 mps 713 mmHg 88%
Show more